Location: Asheville, NC
(35.6000°N, 82.5500°W)
Time: 17:28:07

LilacSat-2 - Pass Details

Date: 09 March 2018
Orbit: 515 x 536 km, 97.5° (Epoch: 18 March)

Event Time Altitude Azimuth Distance (km) Brightness Sun altitude
Rises 06:11:04 0° 17° (NNE) 2,668 ? -8.6°
Reaches altitude 10° 06:13:14 10° 23° (NNE) 1,778 ? -8.2°
Maximum altitude 06:16:58 50° 100° (E) 684 ? -7.4°
Drops below altitude 10° 06:20:41 10° 176° (S) 1,775 ? -6.6°
Sets 06:22:50 0° 181° (S) 2,663 ? -6.2°
